NW6UP Weather Reports


time (UTC)temp
F
wind
direction
speed
knots
gust
knots
rain 1hr
in
rain 24hr
in
rain mn
in
humidity
%
barometer
mb
20260503012425 65 360 1.7 2.6 0.00 0.00 0.00 60 1010.2
20260503010425 66 72 0.9 2.6 0.00 0.00 0.00 58
20260503004426 67 40 0.9 2.6 0.00 0.00 0.00 56 1010.4
20260503002425 68 360 1.7 1.7 0.00 0.00 0.00 56 1010.3
20260503000425 69 337 1.7 1.7 0.00 0.00 0.00 54 1010.3
20260502234426 69 41 0.9 1.7 0.00 0.00 0.00 55 1010.4
20260502232432 69 135 1.7 2.6 0.00 0.00 0.00 55 1010.9
20260502230425 70 90 0.9 1.7 0.00 0.00 0.00 53 1011.2
20260502224425 70 26 0.9 1.7 0.00 0.00 0.00 54 1011.3
20260502222425 70 360 0.9 2.6 0.00 0.00 0.00 53 1011.4
20260502220425 72 37 0.9 2.6 0.00 0.00 0.00 52 1011.5
20260502214426 72 85 0.9 1.7 0.00 0.00 0.00 52 1011.5
20260502212426 70 112 1.7 1.7 0.00 0.00 0.00 55 1012.0
20260502210427 70 112 0.9 1.7 0.00 0.00 0.00 55
20260502204426 70 360 0.9 1.7 0.00 0.00 0.00 54 1012.3
20260502202425 69 77 0.9 1.7 0.00 0.00 0.00 55 1012.6
20260502194425 66 68 1.7 3.5 0.00 0.00 0.00 60 1013.1
20260502192426 66 0 0.0 3.5 0.00 0.00 0.00 62
20260502190426 66 58 0.0 2.6 0.00 0.00 0.00 62
20260502184425 64 298 0.0 0.9 0.00 0.00 0.00 67 1013.5
20260502182426 63 0 0.0 1.7 0.00 0.00 0.00 68
20260502170425 60 90 0.9 0.9 0.00 0.00 0.00 78 1013.4
20260502162425 58 142 0.0 1.7 0.00 0.00 0.00 82 1013.0
20260502160426 58 360 0.9 0.9 0.00 0.00 0.00 84 1012.9
20260502150425 57 147 0.9 2.6 0.00 0.00 0.00 85 1012.5
20260502130426 56 0 0.0 0.9 0.00 0.00 0.00 88
20260502122426 56 0 0.0 0.9 0.00 0.00 0.00 88 1012.1
20260502120425 56 58 0.0 0.9 0.00 0.00 0.00 88 1012.1
20260502114426 56 0 0.0 0.0 0.00 0.00 0.00 88 1012.1
20260502112427 56 45 0.9 0.9 0.00 0.00 0.00 88 1012.1
20260502104427 56 0 0.0 0.0 0.00 0.00 0.00 87 1012.3
20260502100426 56 0 0.0 0.0 0.00 0.00 0.00 87 1012.6
20260502090426 56 360 1.7 0.9 0.00 0.00 0.00 87 1013.0
20260502070425 56 0 0.0 0.0 0.00 0.00 0.00 85
20260502064425 56 45 0.0 0.9 0.00 0.00 0.00 85
20260502062426 56 0 0.0 0.9 0.00 0.00 0.00 85 1013.5
20260502054427 56 0 0.0 0.0 0.00 0.00 0.00 86
20260502052426 56 0 0.0 1.7 0.00 0.00 0.00 86 1013.2
20260502050425 56 0 0.0 0.0 0.00 0.00 0.00 86 1013.0
20260502044425 57 0 0.0 0.9 0.00 0.00 0.00 85
20260502042425 57 173 0.0 1.7 0.00 0.00 0.00 84 1012.6
20260502040426 58 0 0.0 0.0 0.00 0.00 0.00 83 1012.4
20260502032425 59 0 0.0 0.0 0.00 0.00 0.00 80 1011.9
20260502030425 61 27 0.0 0.9 0.00 0.00 0.00 77
20260502024427 62 49 0.0 1.7 0.00 0.00 0.00 73
20260502014425 65 360 0.9 1.7 0.00 0.00 0.00 66 1011.5